Probability
0 0 0 0 0 0 0 1 1 1 0 0 0 0 0 1 2 3 3 3 3 3 3 2 1 0 0 0 0 0 0 0 0 0 0 0 0 0 0 0 0 0 0
0 0 0 0 0 0 0 0 1 1 1 0 0 0 0 1 2 3 3 3 3 3 3 1 0 0 0 0 0 0 0 0 0 0 0 0 0 0 0 0 0 0 0
0 0 0 0 0 0 0 0 0 0 1 1 0 0 0 1 2 3 3 3 3 3 2 1 1 1 0 0 0 0 0 0 0 0 0 0 0 0 0 0 0 0 0
0 0 0 0 0 0 0 0 0 0 0 0 0 0 0 0 1 2 3 3 3 2 1 1 2 2 1 0 0 0 0 0 0 0 0 0 0 0 0 0 0 0 0
0 0 0 0 0 0 0 0 0 0 0 0 0 0 0 0 1 2 3 3 2 1 0 1 2 3 2 1 0 0 0 0 0 0 0 0 0 0 0 0 0 0 0
0 0 0 0 0 0 0 0 0 0 0 0 0 0 0 0 0 1 2 2 2 1 0 1 2 3 3 2 1 0 0 0 0 0 0 0 0 0 0 0 0 0 0
0 0 0 0 0 0 0 0 0 0 0 0 0 0 0 0 0 0 1 1 1 0 0 0 1 1 2 2 1 0 0 0 0 0 0 0 0 0 0 0 0 0 0
0 0 0 0 0 0 0 0 0 0 0 0 0 0 0 0 0 0 0 0 0 0 0 0 1 1 1 1 0 0 0 0 0 0 0 0 0 0 0 0 0 0 0
0 0 0 0 0 0 0 0 0 0 0 0 0 0 0 0 0 0 0 0 0 0 0 0 0 0 0 0 0 0 0 0 0 0 0 0 0 0 0 0 0 0 0
0 0 0 0 0 0 0 0 0 0 0 0 0 0 0 0 0 1 1 1 0 0 0 0 0 0 0 0 0 0 0 0 0 0 0 0 0 0 0 0 0 0 0
0 0 0 0 0 0 0 0 0 0 0 0 0 0 0 0 1 2 2 2 1 0 0 0 0 0 0 0 0 0 0 0 0 0 0 0 0 0 0 0 0 0 0
0 0 0 0 0 0 0 0 0 0 0 0 0 0 0 0 1 2 2 2 1 0 0 0 0 0 0 0 0 0 0 0 0 0 0 0 0 0 0 0 0 0 0
0 0 0 0 0 0 0 0 0 0 0 0 0 0 0 0 1 1 1 1 0 0 0 0 0 0 0 0 0 0 0 0 0 0 0 0 0 0 0 0 0 0 0
0 0 0 0 0 0 0 0 0 0 0 0 0 0 0 0 0 0 0 0 0 0 0 0 0 0 0 0 0 0 0 0 0 0 0 0 0 0 0 0 0 0 0
0 0 0 0 0 0 0 0 0 0 0 0 0 0 0 0 0 0 0 0 0 0 0 0 0 0 0 0 0 0 0 0 0 0 0 0 0 0 0 0 0 0 0
0 0 0 0 0 0 0 0 0 0 0 0 0 0 0 0 0 0 0 0 0 0 0 0 0 0 0 0 0 0 0 0 0 0 0 0 0 0 0 0 0 0 0
0 0 0 0 0 0 0 0 0 0 0 0 0 0 0 0 0 0 0 0 0 0 0 0 0 0 0 0 0 0 0 0 0 0 0 0 0 0 0 0 0 0 0
0 0 0 0 0 0 0 0 0 0 0 0 0 0 0 0 0 0 0 0 0 0 0 0 0 0 0 0 0 0 0 0 0 0 0 0 0 0 0 0 0 0 0
0 0 0 0 0 0 0 0 0 0 0 0 0 0 0 0 0 0 0 0 0 0 0 0 0 0 0 0 0 0 0 0 0 0 0 0 0 0 0 0 0 0 0
0 0 0 0 0 0 0 0 0 0 0 0 0 0 0 0 0 0 0 0 0 0 0 0 0 0 0 0 0 0 0 0 0 0 0 0 0 0 0 0 0 0 0
0 0 0 0 0 0 0 0 0 0 0 0 0 0 0 0 0 0 0 0 0 0 0 0 0 0 0 0 0 0 0 0 0 0 0 0 0 0 0 0 0 0 0
0 0 0 0 0 0 0 0 0 0 0 0 0 0 0 0 0 0 0 0 0 0 0 0 0 0 0 0 0 0 0 0 0 0 0 0 0 0 0 0 0 0 0
0 0 0 0 0 0 0 0 0 0 0 0 0 0 0 0 0 0 0 0 0 0 0 0 0 0 0 0 0 0 0 0 0 0 0 0 0 0 0 0 0 0 0
0 0 0 0 0 0 0 0 0 0 0 0 0 0 0 0 0 0 0 0 0 0 0 0 0 0 0 0 0 0 0 0 0 0 0 0 0 0 0 0 0 0 0
0 0 0 0 0 0 0 0 0 0 0 0 0 0 0 0 0 0 0 0 0 0 0 0 0 0 0 0 0 0 0 0 0 0 0 0 0 0 0 0 0 0 0
0 0 0 0 0 0 0 0 0 0 0 0 0 0 0 0 0 0 0 0 0 0 0 0 0 0 0 0 0 0 0 0 0 0 0 0 0 0 0 0 0 0 0
Wind_Speed
6 4 4 4 4 5 5 6 6 6 5 4 4 4 4 4 3 3 4 5 5 5 4 3 4 4 4 4 4 3 3 2 1 1 1 2 2 3 2 3 3 2 2
5 4 3 3 4 4 5 6 6 7 7 5 5 4 4 4 4 3 4 5 5 5 5 5 4 4 4 4 5 4 3 2 2 2 1 2 3 3 3 3 2 3 2
5 4 4 4 4 4 5 5 6 7 7 6 4 3 3 3 4 4 4 5 5 6 6 6 5 5 5 5 5 5 5 4 4 3 3 2 3 1 3 4 3 3 3
5 4 4 4 4 4 4 5 6 6 6 7 6 7 6 5 6 4 4 5 5 6 6 6 6 6 5 5 5 6 5 5 4 3 3 3 2 2 2 3 3 4 4
4 4 4 4 4 3 3 4 5 5 6 6 7 8 7 5 4 4 5 5 5 6 6 6 6 6 5 6 6 6 6 5 5 4 3 3 3 3 3 4 3 3 4
3 3 3 3 2 2 2 3 4 5 5 6 7 8 8 7 6 6 5 5 4 4 6 6 6 6 6 6 6 6 7 6 6 5 5 4 4 4 4 5 4 4 3
2 2 2 2 2 2 2 3 4 5 6 6 6 6 7 7 8 7 6 5 4 4 6 6 6 6 6 6 6 6 6 7 7 6 5 5 5 3 4 5 4 4 3
1 1 2 2 2 3 3 3 4 5 6 6 6 5 6 5 4 5 5 5 5 5 5 6 6 6 6 6 6 6 6 6 7 7 7 5 5 4 4 4 4 4 4
2 2 2 2 2 2 3 4 4 5 5 6 5 5 5 5 5 4 4 4 4 4 5 6 6 6 6 6 6 5 6 6 7 7 7 6 5 5 5 4 5 5 5
2 2 2 2 2 2 2 2 3 4 5 5 4 4 5 5 5 4 4 4 4 4 4 5 6 6 6 6 6 6 6 6 6 5 6 7 5 5 5 5 5 5 5
2 2 2 2 2 1 1 1 1 2 3 3 4 4 3 3 4 4 4 4 4 3 4 4 5 5 6 6 6 6 6 7 7 6 7 7 6 5 5 5 5 5 5
2 2 2 1 1 1 1 1 1 2 2 2 3 3 3 2 3 3 3 3 3 3 3 3 4 5 5 5 6 6 7 7 7 7 7 7 5 7 5 5 6 5 6
2 2 2 1 1 1 1 2 2 2 2 2 2 2 2 2 3 3 2 2 2 2 2 2 3 3 4 4 5 6 6 6 7 7 7 7 6 7 5 6 6 5 5
2 2 2 1 2 2 2 2 2 2 1 1 2 2 2 2 2 2 2 2 2 2 2 2 2 3 2 3 3 4 5 5 5 5 6 6 7 7 7 6 6 5 5
2 2 2 2 2 2 2 2 2 2 1 1 1 2 2 2 2 1 2 2 2 2 2 2 2 2 2 2 3 3 4 5 5 5 5 6 6 7 6 5 5 5 5
4 3 2 2 2 2 2 2 2 2 1 1 1 1 1 1 1 2 2 2 2 2 1 2 2 3 2 3 3 3 4 4 5 5 5 5 5 6 8 8 8 7 7
4 3 3 3 3 3 3 2 2 1 1 1 1 1 1 1 1 1 1 1 2 2 2 2 2 3 3 3 4 5 4 4 4 4 4 3 3 4 4 6 8 8 9
4 4 3 3 3 2 2 2 1 1 1 1 1 1 1 1 1 1 1 2 2 2 2 2 2 2 3 3 4 4 4 4 4 4 4 4 4 3 4 4 5 6 6
4 4 3 3 2 2 2 1 0 0 1 1 2 2 2 2 1 1 2 2 2 2 2 2 2 3 3 3 3 3 3 3 4 4 4 4 5 4 5 5 5 5 5
3 3 2 2 2 2 1 1 1 1 2 3 2 2 2 2 2 2 2 2 2 2 2 2 2 3 3 3 3 4 2 3 3 4 4 4 5 5 6 5 5 6 5
2 2 2 2 2 1 1 1 1 3 3 2 2 2 2 2 2 2 1 1 1 1 2 2 3 3 3 4 4 4 2 3 3 3 3 3 5 7 7 7 6 6 5
3 2 2 2 1 0 1 2 3 3 2 1 1 1 2 1 1 1 1 1 1 1 2 2 3 3 3 3 4 5 5 4 4 4 3 3 5 6 7 5 5 5 3
3 2 2 2 1 1 1 3 3 3 2 1 2 2 1 1 1 1 1 1 1 2 2 2 3 3 3 3 5 6 7 7 5 4 5 5 6 6 5 5 5 3 2
2 2 2 2 2 2 2 3 3 2 1 1 2 2 1 2 2 1 1 1 2 2 2 3 3 4 3 3 3 3 4 5 5 4 4 5 6 5 4 3 3 3 3
2 2 2 3 3 2 2 3 3 2 2 2 2 2 2 2 2 2 2 3 3 3 3 3 3 4 5 5 6 5 4 3 4 3 2 2 2 3 3 2 3 3 3
2 2 3 3 3 3 3 3 2 2 2 2 2 2 2 2 2 3 3 4 5 6 7 6 6 5 7 8 8 8 8 6 4 3 3 3 3 4 4 3 3 3 4
Wind_Direction
255 248 241 235 231 227 222 212 208 204 200 199 201 204 209 208 208 207 211 212 207 200 199 195 189 191 195 194 191 191 188 195 186 201 245 245 232 231 228 233 236 236 240
255 253 252 240 231 227 226 222 214 207 205 207 204 211 209 212 213 211 213 213 213 205 202 199 196 196 197 197 197 197 196 191 197 213 227 238 218 212 225 231 240 244 243
244 242 244 245 237 232 229 222 219 215 209 205 197 190 196 203 206 212 214 214 214 209 205 204 199 199 202 204 204 204 203 205 204 220 232 234 239 242 210 227 232 236 241
248 244 239 240 238 239 233 226 219 213 208 201 202 198 204 209 211 210 212 213 212 211 207 205 204 204 208 211 210 212 215 212 210 212 239 268 285 242 239 216 224 233 239
257 247 241 240 239 238 232 225 214 209 206 205 207 207 213 217 213 206 208 209 208 211 210 206 207 209 211 214 215 210 212 216 221 213 210 225 242 249 246 254 241 239 239
271 264 260 258 249 243 230 227 215 208 204 205 209 212 215 210 206 205 205 207 208 212 214 210 211 214 215 215 216 215 215 218 224 223 216 214 217 217 229 248 261 262 251
283 279 269 256 252 247 240 230 219 211 206 206 209 214 219 215 214 209 208 206 210 215 215 211 214 215 218 218 216 218 220 220 222 224 227 228 232 233 233 243 255 263 267
312 295 281 263 252 249 246 235 225 217 208 209 212 215 221 218 220 220 214 213 216 221 218 212 214 216 217 217 214 219 220 222 224 226 228 230 232 225 226 234 240 256 254
334 320 317 302 277 260 251 239 225 219 215 213 213 214 218 221 221 218 222 226 228 226 216 210 211 215 214 213 212 219 221 221 225 227 227 229 230 227 230 233 234 241 252
350 334 322 313 301 289 269 244 231 222 216 214 215 221 222 221 219 214 220 229 233 224 215 216 214 215 213 210 211 218 222 221 223 224 227 227 226 226 226 227 231 239 250
344 337 324 316 320 338 342 274 238 233 229 222 219 219 222 218 215 216 221 227 232 227 221 219 215 217 217 214 213 218 221 223 223 222 226 230 226 224 224 225 227 230 234
346 346 341 344 348 343 342 329 284 250 240 230 218 219 215 205 210 218 223 226 229 229 223 222 221 219 221 218 216 218 221 224 225 224 226 231 226 228 226 224 227 229 230
356 358 356 342 329 321 315 309 306 286 256 229 221 220 221 217 225 231 226 222 224 228 222 221 223 226 224 224 222 221 225 230 231 229 228 232 227 230 228 227 230 231 233
346 344 336 322 314 308 304 302 305 305 285 234 219 230 237 235 236 241 236 230 227 225 224 231 237 238 235 237 236 231 228 233 240 241 237 234 230 231 230 229 232 231 233
320 313 305 303 303 303 300 299 304 313 296 256 246 261 261 253 252 253 247 241 237 236 233 238 248 251 246 245 239 237 238 236 238 239 239 239 237 236 233 232 230 226 229
294 289 286 288 285 281 283 286 293 300 280 244 271 302 299 271 256 256 252 246 246 245 241 239 243 249 250 257 245 245 247 246 243 245 245 243 237 239 236 237 237 233 231
281 277 271 266 270 271 267 261 264 268 243 234 275 308 312 291 275 269 259 257 256 253 247 249 251 256 264 263 255 247 249 251 250 252 255 254 250 242 245 242 240 242 242
278 285 285 279 280 281 277 272 263 227 226 261 299 300 286 283 293 273 254 257 256 254 261 265 268 277 294 282 263 254 245 255 257 256 254 254 255 249 246 249 248 246 245
273 282 287 280 282 283 281 257 230 238 243 270 280 283 278 273 273 267 270 267 263 264 267 277 275 276 288 295 288 274 255 255 260 259 256 254 256 257 243 243 249 256 262
298 302 305 295 284 294 282 216 234 259 263 266 270 273 270 266 261 265 266 271 266 271 284 290 286 285 289 304 295 276 255 260 264 265 261 256 259 264 251 245 245 253 262
312 313 299 282 288 301 215 217 239 260 274 287 293 289 281 274 273 282 287 284 279 284 285 289 292 291 293 299 297 287 262 265 269 268 269 267 262 261 258 252 249 253 263
327 323 299 296 321 315 226 239 256 282 304 298 283 287 298 294 292 300 309 307 287 282 289 293 296 295 296 296 297 291 277 278 267 268 272 276 272 267 263 257 261 268 271
319 316 297 298 314 296 251 256 286 317 307 296 290 300 316 311 315 289 285 299 286 275 282 285 288 295 299 297 293 288 284 281 273 274 281 284 277 272 265 264 268 260 246
313 311 301 294 296 297 285 291 322 324 285 269 284 297 293 299 310 296 273 262 260 267 274 276 281 289 292 293 295 287 280 276 272 273 277 275 271 267 270 272 258 248 243
313 305 286 283 291 300 294 315 328 313 274 273 280 282 276 281 281 276 274 266 261 262 263 266 270 276 280 286 292 292 284 279 272 271 262 262 262 255 254 257 257 252 247
304 299 291 287 293 297 299 314 317 288 256 255 263 264 270 274 276 280 288 289 286 288 276 277 280 279 281 293 284 282 284 279 271 259 257 254 251 253 256 258 258 254 252